Regional Weather Roundup
Issued by NWS

Home | Current Version | Previous Version | Graphics & Text | Print | Product List | Glossary On
Versions: 1 2 3 4 5 6 7 8 9 10 11 12 13 14 15 16 17 18 19 20 21 22 23 24 25 26 27 28 29 30 31 32 33 34 35 36 37 38 39 40 41 42 43 44 45 46 47 48 49 50
000
ASUS43 KTOP 270359
RWRKS

WEATHER ROUNDUP FOR KANSAS
NATIONAL WEATHER SERVICE GOODLAND KS
1000 PM CST MON JAN 26 2015

NOTE:  "FAIR" INDICATES FEW OR NO CLOUDS BELOW 12,000 FEET WITH NO
SIGNIFICANT WEATHER AND/OR OBSTRUCTIONS TO VISIBILITY.

KSZ001>006-013>018-027>032-041>047-270500-
NORTHWEST KANSAS

CITY           SKY/WX    TMP DP  RH WIND       PRES   REMARKS
GOODLAND       CLEAR     43  31  62 SW9       30.16S
HAYS           CLEAR     43  25  49 NW7       30.09S
HILL CITY      CLEAR     44  29  55 W7        30.10R
RUSSELL        CLEAR     43  30  60 W6        30.07R
$$

KSZ061>065-074>080-084>089-270500-
SOUTHWEST KANSAS

CITY           SKY/WX    TMP DP  RH WIND       PRES   REMARKS
DODGE CITY     CLEAR     44  28  53 SW7       30.14R
ELKHART          N/A     48  29  48 W7          N/A
GARDEN CITY    CLEAR     44  29  55 NW9       30.14S
GREAT BEND     CLEAR     39  27  60 W5        30.09S
LIBERAL        CLEAR     43  28  56 W10       30.18S
$$

KSZ066>073-081>083-090>101-270500-
SOUTHEAST KANSAS

CITY           SKY/WX    TMP DP  RH WIND       PRES   REMARKS
CHANUTE        CLEAR     47  35  63 NW5       30.04R
COFFEYVILLE    CLEAR     44  34  67 NW6       30.03R
HUTCHINSON     CLEAR     42  32  67 NW5       30.07R
MEDICINE LODGE   N/A     45  32  60 N6        30.08S
NEWTON         CLEAR     50  30  46 W3        30.07S
PARSONS        CLEAR     46  35  65 N8        30.04R
WICHITA INTL   CLEAR     48  33  56 NW6       30.05S
WICHITA JABRA  CLEAR     53  34  48 NW6       30.05S
WINFIELD       CLEAR     40  31  70 CALM      30.07R
$$

KSZ007>012-019>026-033>040-048>060-102>105-270500-
NORTHEAST KANSAS

CITY           SKY/WX    TMP DP  RH WIND       PRES   REMARKS
CONCORDIA      CLEAR     48  33  56 W6        30.05R
EMPORIA        CLEAR     47  32  56 CALM      30.03R
LAWRENCE       CLEAR     32  26  78 CALM      30.03R
MANHATTAN      CLEAR     36  27  69 CALM      30.03F
OLATHE IND     CLEAR     43  30  60 W3        30.03R
OLATHE EXE     CLEAR     47  31  53 NW6       30.01R
SALINA         CLEAR     42  31  64 CALM      30.06S
TOPEKA BILLARD CLEAR     37  29  72 CALM      30.03S
TOPEKA FORBES  CLEAR     41  28  60 W5        30.03R
$$


USA.gov is the U.S. government's official web portal to all federal, state and local government web resources and services.